DW8618 Nerja ES current weather conditions

sailwx.info

Wind from 128 at 2 knots gusting 6

Air temperature 19.4° C
Dewpoint 9.0° C

Last reported at 2015-Apr-19 09:45 UTC.
Time now 2015-Apr-19 11:01 UTC

Location: N 36°46' W 003°52'.
View on Google Maps.

See reports from other nearby stations

  
Tides and Currents Weather Stations Pressure Air Temp Water Temp Dewpoint Dewpoint Depression Visibility Wind Speed Wind Dir Waves Ship Positions
date/time (UTC)wind fromknots sea level pressurealtimeterstation pressurevisibilityair tempwater tempwave heightnotes
2015-Apr-19 09:45 128 2 gusting 6 19.4
2015-Apr-19 09:30 153 0 gusting 5 20.0
2015-Apr-19 09:15 154 1 gusting 5 20.0
2015-Apr-19 09:01 159 0 gusting 5 19.4
2015-Apr-19 08:45 128 20.0
2015-Apr-19 08:31 132 0 gusting 5 19.4
2015-Apr-19 08:15 139 19.4
2015-Apr-19 08:01 153 18.3
2015-Apr-19 07:45 323 19.4
2015-Apr-19 07:30 323 18.3
2015-Apr-19 07:15 323 16.7
2015-Apr-19 07:01 323 16.7
2015-Apr-19 06:46 323 1 gusting 3 16.7
2015-Apr-19 06:30 338 16.7
2015-Apr-19 06:15 338 16.1
2015-Apr-19 06:01 338 2 gusting 4 15.6
2015-Apr-19 05:45 348 15.6
2015-Apr-19 05:31 348 15.6
2015-Apr-19 05:15 349 15.6
2015-Apr-19 05:01 349 15.6
2015-Apr-19 04:46 349 16.1
2015-Apr-19 04:30 349 16.1
2015-Apr-19 04:15 349 16.1
2015-Apr-19 04:01 349 16.1
2015-Apr-19 03:45 349 16.1
2015-Apr-19 03:31 349 16.7
2015-Apr-19 03:15 349 17.2
2015-Apr-19 03:01 349 17.2
2015-Apr-19 02:45 348 16.7
2015-Apr-19 02:30 348 1 gusting 3 16.7
2015-Apr-19 02:15 355 16.7
2015-Apr-19 02:01 355 17.2
2015-Apr-19 01:45 355 1 gusting 4 16.7
2015-Apr-19 01:30 011 0 gusting 3 16.7
2015-Apr-19 01:15 013 0 gusting 3 17.2
2015-Apr-19 01:01 022 17.2
2015-Apr-19 00:45 022 17.2
2015-Apr-19 00:30 022 0 gusting 2 17.2
2015-Apr-19 00:16 031 17.2
2015-Apr-19 00:01 031 17.2
2015-Apr-18 23:45 074 17.8
2015-Apr-18 23:31 074 17.8
2015-Apr-18 23:15 074 18.3
2015-Apr-18 23:01 074 18.9
2015-Apr-18 22:45 026 20.0
2015-Apr-18 22:31 355 0 gusting 4 20.0
2015-Apr-18 22:15 348 1 gusting 6 20.0
2015-Apr-18 22:01 360 4 gusting 7 19.4
2015-Apr-18 21:46 338 3 gusting 6 18.9
2015-Apr-18 21:30 330 0 gusting 5 18.3
2015-Apr-18 21:15 313 3 gusting 5 18.3
2015-Apr-18 21:01 342 2 gusting 6 18.3
2015-Apr-18 20:45 345 18.3
2015-Apr-18 20:30 350 18.9
2015-Apr-18 20:16 348 18.9
2015-Apr-18 20:01 228 18.9
2015-Apr-18 19:45 227 19.4
2015-Apr-18 19:30 227 19.4
2015-Apr-18 19:15 226 19.4
2015-Apr-18 19:01 226 19.4
2015-Apr-18 18:45 226 19.4
2015-Apr-18 18:31 195 20.0
2015-Apr-18 18:15 207 21.1
2015-Apr-18 18:01 263 2 gusting 10 21.7
2015-Apr-18 17:46 290 2 gusting 8 21.7
2015-Apr-18 17:31 238 2 gusting 10 21.7
2015-Apr-18 17:15 278 4 gusting 10 22.2
2015-Apr-18 17:01 273 3 gusting 10 22.2
2015-Apr-18 16:46 262 3 gusting 9 22.2
2015-Apr-18 16:30 259 2 gusting 10 22.2
2015-Apr-18 16:16 281 6 gusting 13 21.7
2015-Apr-18 16:01 257 3 gusting 11 21.1
2015-Apr-18 15:46 202 1 gusting 6 20.6
2015-Apr-18 15:30 252 1 gusting 6 20.0
2015-Apr-18 15:15 219 1 gusting 6 20.6
2015-Apr-18 15:01 188 0 gusting 8 20.6
2015-Apr-18 14:45 192 3 gusting 11 20.0
2015-Apr-18 14:31 219 2 gusting 10 19.4
2015-Apr-18 14:15 221 5 gusting 11 19.4
2015-Apr-18 14:01 202 6 gusting 11 19.4
2015-Apr-18 13:45 194 6 gusting 10 19.4
2015-Apr-18 13:31 189 1 gusting 13 19.4
2015-Apr-18 13:15 205 4 gusting 10 19.4
2015-Apr-18 12:46 211 4 gusting 12 20.6
2015-Apr-18 12:31 207 4 gusting 10 20.6
2015-Apr-18 12:15 208 4 gusting 9 20.0
2015-Apr-18 12:01 208 5 gusting 7 20.0
2015-Apr-18 11:45 229 2 gusting 8 20.6
2015-Apr-18 11:31 213 1 gusting 8 20.0
2015-Apr-18 11:15 214 3 gusting 7 20.0
2015-Apr-18 11:01 221 3 gusting 7 20.0
2015-Apr-18 10:45 221 3 gusting 7 19.4
2015-Apr-18 10:30 231 1 gusting 6 20.0
2015-Apr-18 10:15 236 1 gusting 6 20.0
2015-Apr-18 10:01 243 2 gusting 6 19.4
2015-Apr-18 09:45 244 18.9
2015-Apr-18 09:31 245 1 gusting 6 18.9
2015-Apr-18 09:15 249 0 gusting 4 18.9
2015-Apr-18 09:01 249 18.9
2015-Apr-18 08:45 249 0 gusting 2 17.8
2015-Apr-18 08:30 249 17.8
2015-Apr-18 08:16 249 17.8
2015-Apr-18 08:01 249 0 gusting 2 19.4
2015-Apr-18 07:46 249 18.9
2015-Apr-18 07:30 249 18.3
2015-Apr-18 07:15 249 17.2
2015-Apr-18 07:01 249 17.2
2015-Apr-18 06:45 249 16.1
2015-Apr-18 06:30 249 15.0
2015-Apr-18 06:15 249 14.4
2015-Apr-18 06:01 249 0 gusting 3 13.9
2015-Apr-18 05:46 249 1 gusting 4 13.9
2015-Apr-18 05:30 249 0 gusting 3 13.9
2015-Apr-18 05:15 249 14.4
2015-Apr-18 05:01 249 13.9
2015-Apr-18 04:46 249 0 gusting 3 14.4
2015-Apr-18 04:31 249 13.9
2015-Apr-18 04:15 249 1 gusting 4 13.9
2015-Apr-18 04:01 249 3 gusting 4 14.4
2015-Apr-18 03:46 249 2 gusting 4 14.4
2015-Apr-18 03:30 244 0 gusting 3 14.4
2015-Apr-18 03:15 242 2 gusting 4 14.4
2015-Apr-18 03:01 242 14.4
2015-Apr-18 02:46 242 15.0
2015-Apr-18 02:30 242 15.0
2015-Apr-18 02:15 242 0 gusting 3 15.0
2015-Apr-18 02:01 242 2 gusting 4 15.0
2015-Apr-18 01:45 242 2 gusting 4 15.0
2015-Apr-18 01:30 239 2 gusting 4 15.0
2015-Apr-18 01:15 239 15.0
2015-Apr-18 01:01 239 15.0
2015-Apr-18 00:45 239 15.0
2015-Apr-18 00:30 239 15.0
2015-Apr-18 00:15 239 15.0
2015-Apr-18 00:01 239 15.0
2015-Apr-17 23:46 239 14.4
2015-Apr-17 23:30 239 14.4
2015-Apr-17 23:15 239 14.4
2015-Apr-17 23:01 239 0 gusting 5 13.9
2015-Apr-17 22:45 233 0 gusting 5 13.9
2015-Apr-17 22:31 195 15.0
2015-Apr-17 22:15 178 15.6
2015-Apr-17 22:01 178 16.1
2015-Apr-17 21:46 178 16.1
2015-Apr-17 21:30 178 16.7
2015-Apr-17 21:15 178 16.1
2015-Apr-17 21:01 178 16.7
2015-Apr-17 20:45 178 16.1
2015-Apr-17 20:30 171 15.6
2015-Apr-17 20:15 171 16.1
2015-Apr-17 20:01 171 16.1
2015-Apr-17 19:46 171 16.7
2015-Apr-17 19:30 171 17.2
2015-Apr-17 19:15 171 18.3
2015-Apr-17 19:01 171 18.3
2015-Apr-17 18:46 171 18.3
2015-Apr-17 18:30 171 18.3
2015-Apr-17 18:16 171 18.3
2015-Apr-17 18:01 171 18.3
2015-Apr-17 17:45 171 18.3
2015-Apr-17 17:31 171 1 gusting 3 19.4
2015-Apr-17 17:16 171 19.4
2015-Apr-17 17:01 171 19.4
2015-Apr-17 16:45 171 19.4
2015-Apr-17 16:31 171 18.3
2015-Apr-17 16:15 171 17.2
2015-Apr-17 16:01 171 3 gusting 5 17.8
2015-Apr-17 15:45 171 0 gusting 3 17.8
2015-Apr-17 15:31 171 3 gusting 6 17.8
2015-Apr-17 15:15 171 19.4
2015-Apr-17 15:01 171 18.3
2015-Apr-17 14:45 171 17.2
2015-Apr-17 14:30 171 2 gusting 5 16.7
2015-Apr-17 14:15 174 5 gusting 7 17.2
2015-Apr-17 14:01 163 3 gusting 6 17.2
2015-Apr-17 13:45 169 4 gusting 6 18.3
2015-Apr-17 13:31 171 1 gusting 6 17.2
2015-Apr-17 13:16 169 17.8
2015-Apr-17 13:01 165 3 gusting 6 16.7
2015-Apr-17 12:46 171 3 gusting 4 16.7
2015-Apr-17 12:30 173 4 gusting 7 16.1
2015-Apr-17 12:15 171 3 gusting 8 16.1
2015-Apr-17 12:01 170 4 gusting 6 16.7
2015-Apr-17 11:46 173 3 gusting 5 16.7
2015-Apr-17 11:30 173 16.1
2015-Apr-17 11:16 173 1 gusting 5 16.1
2015-Apr-17 11:01 170 4 gusting 6 16.1